< < Back
Terminal Aerodrome Forecast


Current Version              Previous Versions:   1  2  3  4  5  6  7  8  9  

Terminal Aerodrome Forecast

698
FTUS42 KGSP 281735
TAFGSP
TAF
KGSP 281735Z 2818/2918 32007G14KT P6SM SKC
     FM282300 35005KT P6SM SKC
     FM291500 19004KT P6SM SKC=

Latest METAR

279
SAUS70 KWBC 290900 RRH
MTRGSP
METAR KGSP 290853Z 00000KT 10SM CLR 00/M11 A3030 RMK AO2 SLP263
T00001106 53012


USA.gov is the U.S. government's official web portal to all federal, state and local government web resources and services.